Regional Weather Roundup
Issued by NWS Grand Forks, ND

Home | Current Version | Previous Version | Graphics & Text | Print | Product List | Glossary On
Versions: 1 2 3 4 5 6 7 8 9 10 11 12 13 14 15 16 17 18 19 20 21 22 23 24 25 26 27 28 29 30 31 32 33 34 35 36 37 38 39 40 41 42 43 44 45 46 47 48 49 50
000
ASUS43 KFGF 270731
RWRFGF
PRAIRIE TO PINES  WEATHER ROUNDUP
NATIONAL WEATHER SERVICE EASTERN NORTH DAKOTA/GRAND FORKS ND
200 AM CDT THU APR 27 2017

 **SATELLITE DATA USED TO AUGMENT SKY COVER AT AUTOMATED STATIONS**
 *****  WEATHER ACROSS EASTERN NORTH DAKOTA  *****

CITY           SKY/WX    TMP DP  RH WIND       PRES   REMARKS
GRAND FORKS    FLURRIES  30  26  85 NE18      29.75F WCI  18
GRAND FRKS AFB MIX PCPN  28  27  93 NE14      29.75F WCI  17
DEVILS LAKE    FAIR      31  24  75 N7        29.76S WCI  24
FARGO          MIX PCPN  28  25  88 N16       29.70F WCI  16
WAHPETON ARPT  CLOUDY    28  25  86 N12G20    29.66F WCI  18
$$

 ***** WEATHER ACROSS CENTRAL AND WESTERN NORTH DAKOTA  *****

CITY           SKY/WX    TMP DP  RH WIND       PRES   REMARKS
BISMARCK       CLOUDY    36  27  69 N6        29.77S
MINOT          FAIR      25  21  85 N5        29.79S WCI  19
JAMESTOWN      MOCLDY    29  25  85 N10       29.73S WCI  20
MINOT AFB      FAIR      29  23  78 NE5       29.79S WCI  24
GARRISON         N/A     25  20  81 NE5       29.77S WCI  19
WILLISTON      FAIR      33  25  72 E9        29.76S
DICKINSON      FAIR      25  22  88 SE9       29.72S WCI  15
HETTINGER      FAIR      27  23  85 E7        29.73S WCI  19
$$

 *****  OTHER AIRPORT OBSERVATIONS IN OUR AREA  *****

CITY           SKY/WX    TMP DP  RH WIND       PRES   REMARKS
WALHALLA       NOT AVBL
GRAFTON AIRPOR CLOUDY    30  27  86 NE15G21   29.78S WCI  19
VALLEY CITY AR CLOUDY    27  27 100 N12       29.73F WCI  16
CANDO          NOT AVBL
CAVALIER APRT  CLOUDY    32  27  80 E5        29.77F
GWINNER        CLOUDY    28  27  93 MISG      29.69F
SHEYENNE NWR     N/A     27  24  89 N8        29.95S WCI  19
ROLLA          PTSUNNY   27  19  74 N10       29.78S WCI  17
 ***** THE ABOVE OBSERVATIONS ARE NON NWS ARE NOT QUALITY
       CONTROLLED AND MAY MIS-REPORT RAIN FOR SNOW...
$$

  *****  WEATHER ACROSS NORTHERN MINNESOTA  *****

CITY           SKY/WX    TMP DP  RH WIND       PRES   REMARKS
FLAG ISLAND    CLOUDY    27  19  74 NE21G26   29.74S WCI  13
WARROAD        LGT SNOW  27  21  80 NE20G29   29.74R VSB 3/4 WCI  13
ROSEAU         LGT SNOW  27  21  80 NE13      29.74R WCI  16
HALLOCK        CLOUDY    28  27  93 CALM      29.77S
THF RVR FALLS  FLURRIES  25  22  88 NE13      29.73R WCI  14
BAUDETTE       LGT SNOW  24  17  74 NE12      29.70F WCI  13
WASKISH        CLOUDY    23  18  80 NE9G16    29.68F WCI  13
CROOKSTON      FLURRIES  27  25  93 N7        29.74F WCI  19
STEPHEN NDAWN    N/A     27  25  93 NE12        N/A  WCI  16
GREENBUSH NDAW   N/A     25  25 100 NE12        N/A  WCI  14
$$
  *****  WEATHER ACROSS CENTRAL AND WEST MINNESOTA  *****

CITY           SKY/WX    TMP DP  RH WIND       PRES   REMARKS
FOSSTON        LGT SNOW  23  21  93 N12       29.67F WCI  12
BEMIDJI        FLURRIES  23  19  86 NE14      29.64F WCI  10
PARK RAPIDS    CLOUDY    26  19  74 N13       29.60F HAZE    WCI  15
ELBOW LAKE     CLOUDY    29  28  94 N9        29.62F WCI  21
WADENA         MIX PCPN  27  25  93 N5        29.60F WCI  21
DETROIT LAKES  FAIR      28  25  86 N3        29.63F
MOORHEAD       CLOUDY    27  25  93 N8        29.69F WCI  18
FERGUS FALLS   CLOUDY    28  25  86 N8        29.64F WCI  20
MORRIS MN      CLOUDY    30  27  86 NW12      29.61F WCI  21
STAPLES        LGT SNOW  27  25  93 N6        29.60F WCI  20
$$
  *****  WEATHER ELSEWHERE ACROSS MINNESOTA  *****

CITY           SKY/WX    TMP DP  RH WIND       PRES   REMARKS
DULUTH         FRZ DRZL  24  22  91 N9        29.56F WCI  14
INTRNTL FALLS  CLOUDY    23  14  68 NE9G16    29.68F WCI  13
ELY            CLOUDY    19  18  93 N3        29.59F
CLOQUET        CLOUDY    25  21  86 N10       29.57F FOG     WCI  15
WHEATON        CLOUDY    28  25  86 NW13G20   29.67F WCI  18
BRAINERD       CLOUDY    28  26  92 N7        29.59F FOG     WCI  21
HIBBING        CLOUDY    22  19  89 N7        29.60F WCI  13
ALEXANDRIA     CLOUDY    29  26  89 N10       29.60F WCI  20
SAINT CLOUD    CLOUDY    31  29  92 N9        29.57F WCI  23
MINNEAPOLIS    CLOUDY    36  30  79 N8        29.56S
$$

  *****  WEATHER ACROSS SOUTH DAKOTA  *****

CITY           SKY/WX    TMP DP  RH WIND       PRES   REMARKS
SIOUX FALLS    CLOUDY    31  26  82 NW15      29.66R WCI  20
BROOKINGS      CLOUDY    28  25  86 N14       29.64F WCI  17
WATERTOWN      CLOUDY    27  23  85 N15       29.63F WCI  15
HURON          CLOUDY    30  24  78 N9        29.72F WCI  22
SISSETON         N/A     28  26  92 N14       29.66F WCI  17
ABERDEEN       CLOUDY    29  23  78 N12       29.73S WCI  19
MITCHELL       CLOUDY    32  27  81 N10       29.72F WCI  24
PIERRE         FAIR      24  20  84 CALM      29.74R
MOBRIDGE       CLOUDY    33  24  69 NE5       29.72S
RAPID CITY     FAIR      27  25  92 W3        29.68F
$$

  *****  SOME WEATHER IN NEARBY STATES *****

CITY           SKY/WX    TMP DP  RH WIND       PRES   REMARKS
GLASGOW MT     FAIR      35  22  58 E14       29.68S
GREAT FALLS MT FAIR      37  36  96 S5        29.59F
CHEYENNE WY    CLOUDY    40  33  76 SW16      29.66F
SCOTTSBLUFF NE CLOUDY    41  37  86 E7        29.66S
OMAHA NE       CLOUDY    40  31  70 NW12      29.66F
DES MOINES IA  DRIZZLE   40  34  79 NW12G21   29.57F
DAVENPORT IA   RAIN      42  40  92 NW12      29.47R FOG
CHICAGO IL     LGT RAIN  60  57  89 S14       29.37F
EAU CLAIRE WI  CLOUDY    35  28  75 N10       29.50F
LA CROSSE WI   CLOUDY    41  37  86 N12       29.49F
$$

  *****  SOME NATIONAL WEATHER *****

CITY           SKY/WX    TMP DP  RH WIND       PRES   REMARKS
LA GUARDIA NY  DRZL/FOG  58  56  93 CALM      29.84S VSB 1/2
RALEIGH NC     FAIR      66  62  87 SW10      29.85S
ATLANTA GA     MOCLDY    66  56  70 S9        29.80F
NEW ORLEANS LA CLOUDY    76  73  91 SW8       29.69F
OKLAHOMA CITY  FAIR      44  39  82 SW5       29.76R
ALBUQUERQUE NM FAIR      52  32  46 SE7       29.77F
SALT LAKE CITY RAIN      45  43  93 W13G21    29.74R
LOS ANGELES CA MOCLDY    59  55  87 SE6       29.83F
BOISE ID       MOCLDY    42  37  82 NW9       29.84R
SEATTLE WA     CLOUDY    46  39  76 SW14      29.99S
$$

*** WEATHER ACROSS MANITOBA...SASKATCHEWAN AND ONTARIO ***
                ***ONTARIO***

CITY           SKY/WX    TMP DP  RH WIND       PRES   REMARKS
GERALDTON      LGT SNOW  16  12  86 NE15G23   29.64F DRFTSNOWWCI   1
THUNDER BAY    CLOUDY    23  19  86 N5        29.61F WCI  17
SIOUX LOOKOUT  FLURRIES  19  14  79 VRB3      29.75R
TORONTO        CLEAR     50  48  93 W2        29.66F
BIG TROUT LK   CLOUDY    19   9  63 E8        30.07F WCI   9
PICKLE LAKE    NOT AVBL
DRYDEN         FLURRIES  21  16  79 NE17G26   29.72R WCI   7
KENORA         FLURRIES  23  18  80 NE16G22   29.76R WCI  10
$$
                *** MANITOBA***

CITY           SKY/WX    TMP DP  RH WIND       PRES   REMARKS
BRANDON        PTCLDY    28  18  64 NE14      29.82F WCI  17
DAUPHIN        CLEAR     21  18  86 W6        29.89S WCI  14
ISLAND LAKE    CLEAR     23   9  54 E6        30.02F WCI  16
PILOT MOUND      N/A     32  10  40 NE7         N/A
THE PAS        CLEAR     27   9  46 E6        29.97S WCI  20
THOMPSON       CLEAR     23   1  39 E3        30.06S
WINNIPEG       MOCLDY    34  14  44 NE9G17    29.80F
LYNN LAKE      CLEAR     23   5  46 SE3       30.00S
CHURCHILL      CLEAR     10   1  67 S10       30.12F WCI  -3
GILLAM         CLEAR     18   1  49 SE6       30.12F WCI   9
$$
                ***SASKATCHEWAN***

CITY           SKY/WX    TMP DP  RH WIND       PRES   REMARKS
ESTEVAN        PTCLDY    28  25  86 E10       29.80S WCI  19
KINDERSLEY     FLURRIES  32  30  93 E20G29    29.68F WCI  20
LLOYDMINSTER   LGT SNOW  32  32 100 SE14      29.77S WCI  22
PRINCE ALBERT  CLOUDY    28  19  69 E8        29.86S WCI  20
REGINA         PTCLDY    32  19  59 E16G22    29.79S WCI  21
YORKTON        PTCLDY    25  21  86 NE5       29.87S WCI  19
N. BATTLEFORD  CLOUDY    34  21  60 E13       29.81S WCI  25
LA RONGE       PTCLDY    30  10  43 E6        29.92F WCI  24
SASKATOON      CLOUDY    36  21  55 E13       29.82R
SWIFT CURRENT  CLOUDY    36  25  64 SE17G23   29.65S
$$
NOTE: THESE ARE AUTOMATED STATIONS WITH LIMITED QUALITY CONTROL
      "FAIR" INDICATES FEW OR NO CLOUDS BELOW 12,000 FEET WITH NO
      SIGNIFICANT WEATHER AND/OR OBSTRUCTIONS TO VISIBILITY.
      SKY/WX - SKY CONDITION AND SIGNIFICANT WEATHER.
      TMP - AIR TEMPERATURE.    DP   - DEWPOINT TEMPERATURE.
      RH  - RELATIVE HUMIDITY.  PRES - PRESSURE.
      HX  - HEAT INDEX.         WCI  - WIND CHILL INDEX.
$



USA.gov is the U.S. government's official web portal to all federal, state and local government web resources and services.